Curacao, Curacao

10:15 AM AST on February 11, 2016 (GMT -0400)
Willemstad-Hato International

Weather History for TNCC - October, 2013

Change the Weather History Date:

Monday, October 28, 2013

  Actual Average Record
Temperature  
Mean Temperature 86 °F -  
Max Temperature 90 °F 86 °F 91 °F (2000)
Min Temperature 81 °F 76 °F 48 °F (2006)
Cooling Degree Days 20    
Growing Degree Days 36 (Base 50)    
Moisture  
Dew Point 74 °F    
Average Humidity 70    
Maximum Humidity 79    
Minimum Humidity 50    
Precipitation  
Precipitation 0.01 in 0.12 in - ()
Sea Level Pressure  
Sea Level Pressure 29.89 in    
Wind  
Wind Speed 11 mph ()    
Max Wind Speed 15 mph    
Max Gust Speed -    
Visibility 7.9 miles    
Events Rain    
Averages and records for this station are not official NWS values.
T = Trace of Precipitation, MM = Missing Value Source: Averaged Metar Reports

Daily Weather History Graph

Daily Weather History Graph

Search for Another Location

Airport or City:

Trip Planner

Search our weather history database for the weather conditions in past years. The results will help you decide how hot, cold, wet, or windy it might be!

Date:

Astronomy

Oct. 28, 2013 Rise Set
Actual Time 6:27 AM AST 6:11 PM AST
Civil Twilight 6:06 AM AST 6:32 PM AST
Nautical Twilight 5:41 AM AST 6:58 PM AST
Astronomical Twilight 5:16 AM AST 7:23 PM AST
Moon 1:17 AM AST (10/28) 1:56 PM AST (10/28)
Length of Visible Light 12h 26m
Length of Day
11h 43m
Waning Crescent, 34% of the Moon is Illuminated
Oct 28
Waning Crescent
Nov 3
New
Nov 10
First Quarter
Nov 17
Full
Nov 25
Last Quarter

Hourly Weather History & Observations

Time (AST) Temp. Heat Index Dew Point Humidity Pressure Visibility Wind Dir Wind Speed Gust Speed Precip Events Conditions
12:00 AM 82.4 °F 89.5 °F 75.2 °F 79% 29.89 in 6.2 mi East 12.7 mph - N/A   Scattered Clouds
1:00 AM 82.4 °F 89.5 °F 75.2 °F 79% 29.89 in 6.2 mi East 12.7 mph - N/A   Scattered Clouds
2:00 AM 82 °F - 74 °F 71% 29.88 in 12 mi ESE 12.7 mph - -   Partly Cloudy
2:00 AM 82.4 °F 89.5 °F 75.2 °F 79% 29.86 in 6.2 mi East 12.7 mph - N/A   Scattered Clouds
3:00 AM 82.4 °F 89.5 °F 75.2 °F 79% 29.86 in 6.2 mi East 12.7 mph - N/A   Scattered Clouds
4:00 AM 82.4 °F 89.5 °F 75.2 °F 79% 29.86 in 6.2 mi East 12.7 mph - N/A   Scattered Clouds
5:00 AM 82 °F - 73 °F 68% 29.87 in 12 mi SE 9.2 mph - -   Haze
5:00 AM 82.4 °F 88.2 °F 73.4 °F 74% 29.86 in 6.2 mi ESE 13.8 mph - N/A   Scattered Clouds
6:00 AM 82.4 °F 88.2 °F 73.4 °F 74% 29.89 in 6.2 mi ESE 10.4 mph - N/A   Scattered Clouds
7:00 AM 82.4 °F 87.2 °F 71.6 °F 70% 29.92 in 6.2 mi ESE 9.2 mph - N/A   Scattered Clouds
8:00 AM 86 °F - 72 °F 56% 29.93 in 16 mi ESE 10.4 mph - -   Scattered Clouds
8:00 AM 86.0 °F 93.4 °F 73.4 °F 66% 29.92 in 6.2 mi ESE 11.5 mph - N/A   Partly Cloudy
9:00 AM 87.8 °F 95.6 °F 73.4 °F 62% 29.95 in 6.2 mi East 12.7 mph - N/A   Scattered Clouds
10:00 AM 89.6 °F 99.8 °F 75.2 °F 62% 29.95 in 6.2 mi East 11.5 mph - N/A   Scattered Clouds
11:00 AM 90 °F - 74 °F 50% 29.94 in 22 mi East 13.8 mph - -   Partly Cloudy
11:00 AM 89.6 °F 98.2 °F 73.4 °F 59% 29.95 in 6.2 mi East 11.5 mph - N/A   Scattered Clouds
12:00 PM 84.2 °F 92.3 °F 75.2 °F 74% 29.92 in 5.0 mi ENE 12.7 mph - N/A Rain Light Rain Showers
1:00 PM 87.8 °F 95.6 °F 73.4 °F 62% 29.89 in 6.2 mi East 15.0 mph - N/A   Mostly Cloudy
2:00 PM 89 °F - 73 °F 51% 29.87 in - East 12.7 mph - -   Partly Cloudy
2:00 PM 89.6 °F 98.2 °F 73.4 °F 59% 29.86 in 6.2 mi East 12.7 mph - N/A   Scattered Clouds
3:00 PM 87.8 °F 95.6 °F 73.4 °F 62% 29.83 in 6.2 mi East 11.5 mph - N/A   Scattered Clouds
4:00 PM 86.0 °F 95.1 °F 75.2 °F 70% 29.83 in 6.2 mi ENE 12.7 mph - N/A   Mostly Cloudy
5:00 PM 83 °F - 75 °F 70% 29.84 in 16 mi ESE 8.1 mph - - Rain Light Rain Showers
5:00 PM 82.4 °F 89.5 °F 75.2 °F 79% 29.83 in 6.2 mi ESE 8.1 mph - N/A   Mostly Cloudy
6:00 PM 84.2 °F 92.3 °F 75.2 °F 74% 29.83 in 6.2 mi East 12.7 mph - N/A   Scattered Clouds
7:00 PM 82.4 °F 89.5 °F 75.2 °F 79% 29.86 in 6.2 mi East 10.4 mph - N/A   Scattered Clouds
8:00 PM 83 °F - 75 °F 70% 29.88 in 16 mi North 10.4 mph - -   Partly Cloudy
8:00 PM 82.4 °F 89.5 °F 75.2 °F 79% 29.86 in 6.2 mi East 13.8 mph - N/A   Partly Cloudy
9:00 PM 82.4 °F 89.5 °F 75.2 °F 79% 29.89 in 6.2 mi East 12.7 mph - N/A   Partly Cloudy
10:00 PM 82.4 °F 89.5 °F 75.2 °F 79% 29.92 in 6.2 mi East 10.4 mph - N/A   Scattered Clouds
11:00 PM 83 °F - 74 °F 69% 29.92 in 16 mi ESE 10.4 mph - -   Partly Cloudy
11:00 PM 82.4 °F 88.2 °F 73.4 °F 74% 29.92 in 6.2 mi East 12.7 mph - N/A   Scattered Clouds